sat.trackr.live / text

‹ back to catalog

STARLINK-5556

NORAD 55385 · 2023-013BG

PAYLOAD ACTIVE UNKNOWN

§ Identity

Operator
Country
US
Launch date
2023-01-26
Launch site
AFETR
Launch vehicle
Mass (kg)
RCS (m²)

Purposes: comms

External: N2YO · Heavens-Above · Gunter

§ Orbital elements

Epoch: 2026-09-20T10:16:20.344800Z

Period
94.27 min
Inclination
43.0055°
Eccentricity
0.0001822
Mean motion
15.27578639 rev/d
Perigee alt
481.8 km
Apogee alt
484.3 km
Semi-major
6,861.2 km
B*
9.5801e-6
RAAN
298.5210°
Arg perigee
287.3722°
Mean anomaly
72.6930°
Rev number
20,128

§ Raw data

STARLINK-55561 55385U 23013BG  26263.42801325  .00000001  00000+0  95801-5 0  99972 55385  43.0055 298.5210 0001822 287.3722  72.6930 15.27578639201289

JSON: /api/v1/satellites/55385 · /tle

For live sub-satellite position, see the globe view (requires WebGL).

§ Visibility from observer

Set your observer location to see the next 7 days of passes ≥ 10°. The values pass through the URL so the page stays shareable.

No JS? Fill the form by hand. The geolocation button needs JavaScript.